DW5522 Weather Reports


Display with metric or nautical units.
time (UTC)temp
F
wind
direction
speed
MPH
gust
MPH
rain 1hr
in
rain 24hr
in
rain mn
in
humidity
%
barometer
mb
20260502181505 60 159 0.0 2.0 0.14 0.18 0.18 89 1013.9
20260502181212 60 159 1.0 2.0 0.14 0.18 0.18 89 1013.7
20260502181210 60 159 1.0 2.0 0.14 0.18 0.18 89 1013.8
20260502181203 60 159 1.0 2.0 0.14 0.18 0.18 89 1013.8
20260502181003 61 159 0.0 2.0 0.13 0.18 0.18 89 1013.9
20260502180803 61 162 0.0 2.0 0.12 0.17 0.17 89 1013.9
20260502180703 61 162 1.0 2.0 0.12 0.17 0.17 89 1013.9
20260502180503 61 162 1.0 2.0 0.12 0.17 0.17 88 1014.0
20260502180302 61 162 0.0 4.0 0.12 0.16 0.16 88 1014.1
20260502180210 61 162 1.0 4.0 0.09 0.14 0.14 85 13.9
20260502170302 68 160 2.0 6.0 0.00 0.05 0.05 83 1013.4
20260502170210 68 160 2.0 6.0 0.00 0.05 0.05 81 13.1
20260502170104 68 136 1.0 3.0 0.00 0.05 0.05 82 1013.4
20260502164210 68 78 0.0 1.0 0.00 0.05 0.05 80 13.4
20260502164203 68 78 0.0 1.0 0.00 0.05 0.05 83 1013.6
20260502164003 68 78 0.0 1.0 0.00 0.05 0.05 83 1013.7
20260502163903 68 78 0.0 2.0 0.00 0.05 0.05 83 1013.7
20260502163802 68 78 0.0 2.0 0.00 0.05 0.05 83 1013.7
20260502163702 68 78 1.0 2.0 0.00 0.05 0.05 82 1013.7
20260502163505 68 78 0.0 2.0 0.00 0.05 0.05 82 1013.7
20260502163303 68 78 1.0 2.0 0.00 0.05 0.05 82 1013.7
20260502163210 68 78 1.0 2.0 0.00 0.05 0.05 82 1013.7
20260502163103 68 78 1.0 2.0 0.00 0.05 0.05 82 1013.7
20260502162903 68 78 0.0 2.0 0.00 0.05 0.05 82 1013.8
20260502162503 68 78 1.0 2.0 0.00 0.05 0.05 82 1013.8
20260502162214 68 78 1.0 1.0 0.00 0.05 0.05 82 1013.9
20260502162209 68 78 1.0 2.0 0.00 0.05 0.05 82 1013.9
20260502162202 68 78 1.0 1.0 0.00 0.05 0.05 82 1013.9
20260502161902 68 78 0.0 1.0 0.00 0.05 0.05 82 1014.0
20260502161802 68 78 0.0 1.0 0.00 0.05 0.05 82 1014.0
20260502161603 68 78 0.0 1.0 0.00 0.05 0.05 81 1014.0
20260502161403 67 78 0.0 2.0 0.00 0.05 0.05 81 1013.9
20260502161303 68 78 0.0 2.0 0.00 0.05 0.05 81 1014.0
20260502161104 68 78 0.0 2.0 0.00 0.05 0.05 81 1014.1
20260502160902 68 78 0.0 2.0 0.00 0.05 0.05 82 1014.0
20260502160803 67 78 1.0 4.0 0.00 0.05 0.05 82 1014.0
20260502160702 67 78 2.0 4.0 0.00 0.05 0.05 82 1014.0
20260502160504 67 78 1.0 4.0 0.00 0.05 0.05 81 1014.0
20260502160303 67 78 2.0 4.0 0.00 0.05 0.05 80 1013.9
20260502160213 68 78 2.0 4.0 0.00 0.05 0.05 76 13.7
20260502160210 67 78 2.0 4.0 0.00 0.05 0.05 80 1014.0
20260502160203 67 78 1.0 3.0 0.00 0.05 0.05 80 1014.0
20260502152210 71 76 2.0 4.0 0.00 0.05 0.05 76 14.5
20260502152203 72 141 1.0 3.0 0.00 0.05 0.05 77 1014.7
20260502152004 72 103 2.0 3.0 0.00 0.05 0.05 76 1014.7
20260502151803 72 122 1.0 3.0 0.00 0.05 0.05 76 1014.7
20260502151603 72 84 3.0 3.0 0.00 0.05 0.05 75 1014.8
20260502151403 72 128 1.0 3.0 0.00 0.05 0.05 76 1014.8
20260502151210 72 148 1.0 5.0 0.00 0.05 0.05 76 1014.8
20260502151202 72 111 0.0 3.0 0.00 0.05 0.05 75 1014.8
20260502151003 72 71 3.0 3.0 0.00 0.05 0.05 75 1014.8
20260502150803 72 78 2.0 3.0 0.00 0.05 0.05 77 1014.8
20260502150603 71 84 1.0 3.0 0.00 0.05 0.05 76 1014.9
20260502150403 71 84 1.0 3.0 0.00 0.05 0.05 77 1014.9
20260502150210 71 74 3.0 4.0 0.00 0.05 0.05 76 14.7
20260502150202 71 74 2.0 3.0 0.00 0.05 0.05 79 1014.9
20260502130703 67 182 1.0 5.0 0.01 0.01 0.01 81 1016.4
20260502130504 67 182 1.0 6.0 0.01 0.01 0.01 80 1016.4
20260502130303 67 182 3.0 7.0 0.01 0.01 0.01 80 1016.5
20260502130210 67 182 1.0 7.0 0.01 0.01 0.01 80 1016.5
20260502130103 68 181 5.0 7.0 0.01 0.01 0.01 79 1016.4
20260502123803 72 194 2.0 7.0 0.00 0.00 0.00 62 1016.5
20260502123504 72 188 4.0 7.0 0.00 0.00 0.00 63 1016.6
20260502123402 72 185 0.0 6.0 0.00 0.00 0.00 62 1016.6
20260502123303 72 202 3.0 4.0 0.00 0.00 0.00 64 1016.6
20260502123210 72 200 3.0 4.0 0.00 0.00 0.00 64 1016.6
20260502123102 72 200 3.0 4.0 0.00 0.00 0.00 63 1016.6
20260502123005 72 235 3.0 3.0 0.00 0.00 0.00 61 1016.6
20260502122903 72 236 0.0 3.0 0.00 0.00 0.00 61 1016.6
20260502122703 72 300 0.0 2.0 0.00 0.00 0.00 61 1016.5
20260502122504 72 302 0.0 2.0 0.00 0.00 0.00 65 1016.5
20260502122305 72 292 1.0 2.0 0.00 0.00 0.00 64 1016.5
20260502122210 72 302 1.0 2.0 0.00 0.00 0.00 64 1016.5
20260502122203 72 302 0.0 2.0 0.00 0.00 0.00 64 1016.5
20260502122004 73 302 1.0 2.0 0.00 0.00 0.00 62 1016.5
20260502121702 73 302 1.0 3.0 0.00 0.00 0.00 60 1016.6
20260502121503 73 312 2.0 3.0 0.00 0.00 0.00 60 1016.6
20260502121403 73 312 1.0 3.0 0.00 0.00 0.00 59 1016.5
20260502121210 73 338 1.0 3.0 0.00 0.00 0.00 59 1016.5
20260502121208 75 338 1.0 3.0 0.00 0.00 0.00 58 16.3
20260502121203 73 338 2.0 4.0 0.00 0.00 0.00 60 1016.5
20260502121103 73 339 1.0 4.0 0.00 0.00 0.00 60 1016.5
20260502120903 73 339 2.0 4.0 0.00 0.00 0.00 58 1016.5
20260502120702 74 32 1.0 2.0 0.00 0.00 0.00 58 1016.5
20260502120504 74 32 0.0 3.0 0.00 0.00 0.00 58 1016.5
20260502120402 74 22 0.0 4.0 0.00 0.00 0.00 56 1016.6
20260502120209 74 32 0.0 3.0 0.00 0.00 0.00 56 1016.6
20260502120203 74 32 1.0 4.0 0.00 0.00 0.00 57 1016.6
20260502115903 74 32 2.0 4.0 0.00 0.00 0.00 56 1016.7
20260502115602 74 44 0.0 3.0 0.00 0.00 0.00 55 1016.8
20260502115305 75 40 2.0 3.0 0.00 0.00 0.00 58 1016.8
20260502115211 75 40 2.0 3.0 0.00 0.00 0.00 58 1016.8
20260502115209 76 40 1.0 4.0 0.00 0.00 0.00 54 1016.8
20260502115203 75 40 2.0 3.0 0.00 0.00 0.00 58 1016.8
20260502115103 76 40 2.0 4.0 0.00 0.00 0.00 54 1016.8
20260502114903 76 40 2.0 4.0 0.00 0.00 0.00 59 1016.8
20260502114505 75 63 3.0 4.0 0.00 0.00 0.00 57 1016.8
20260502114211 75 173 1.0 2.0 0.00 0.00 0.00 58 1016.9
20260502114209 75 173 1.0 2.0 0.00 0.00 0.00 57 1016.9
20260502114103 75 173 0.0 2.0 0.00 0.00 0.00 55 1016.9
20260502114002 75 180 1.0 2.0 0.00 0.00 0.00 57 1016.9
20260502113802 75 174 1.0 2.0 0.00 0.00 0.00 57 1016.9
20260502113703 75 174 0.0 2.0 0.00 0.00 0.00 58 1016.9
20260502113403 75 186 1.0 4.0 0.00 0.00 0.00 56 1017.0
20260502113302 75 186 1.0 5.0 0.00 0.00 0.00 59 1017.0
20260502113210 75 186 1.0 5.0 0.00 0.00 0.00 59 1017.0
20260502113208 76 186 1.0 4.0 0.00 0.00 0.00 54 16.8
20260502113005 75 186 3.0 5.0 0.00 0.00 0.00 54 1017.0
20260502112802 76 222 1.0 7.0 0.00 0.00 0.00 58 1017.1
20260502112603 75 204 7.0 7.0 0.00 0.00 0.00 55 1017.2
20260502112403 75 175 0.0 7.0 0.00 0.00 0.00 55 1017.1
20260502112305 74 229 2.0 4.0 0.00 0.00 0.00 55 1017.1
20260502112210 74 229 2.0 4.0 0.00 0.00 0.00 55 1017.2
20260502112208 75 198 3.0 5.0 0.00 0.00 0.00 56 16.9
20260502112004 74 225 2.0 5.0 0.00 0.00 0.00 54 1017.2
20260502111903 75 225 3.0 5.0 0.00 0.00 0.00 53 1017.3
20260502111703 75 195 5.0 7.0 0.00 0.00 0.00 54 1017.3
20260502111505 75 194 5.0 7.0 0.00 0.00 0.00 55 1017.3
20260502111404 74 209 4.0 7.0 0.00 0.00 0.00 55 1017.3
20260502111210 74 205 4.0 5.0 0.00 0.00 0.00 57 1017.4
20260502111208 74 207 5.0 7.0 0.00 0.00 0.00 57 17.1
20260502111203 74 205 4.0 5.0 0.00 0.00 0.00 57 1017.4
20260502111004 74 202 3.0 5.0 0.00 0.00 0.00 56 1017.3
20260502110903 74 205 0.0 5.0 0.00 0.00 0.00 55 1017.4
20260502110702 73 215 0.0 2.0 0.00 0.00 0.00 54 1017.4
20260502110504 73 215 2.0 3.0 0.00 0.00 0.00 55 1017.4
20260502110403 73 219 1.0 3.0 0.00 0.00 0.00 55 1017.4
20260502110303 74 229 2.0 3.0 0.00 0.00 0.00 56 1017.4
20260502110210 74 229 2.0 5.0 0.00 0.00 0.00 56 1017.4
20260502110208 73 229 1.0 5.0 0.00 0.00 0.00 56 17.2
20260502110005 73 219 0.0 3.0 0.00 0.00 0.00 58 1017.4
20260502105603 72 303 1.0 3.0 0.00 0.00 0.00 60 1017.5
20260502105403 72 180 1.0 6.0 0.00 0.00 0.00 57 1017.5
20260502105210 72 190 0.0 3.0 0.00 0.00 0.00 57 1017.5
20260502105208 72 190 0.0 5.0 0.00 0.00 0.00 57 17.3
20260502105203 72 192 4.0 6.0 0.00 0.00 0.00 56 1017.5
20260502104803 73 194 2.0 6.0 0.00 0.00 0.00 56 1017.6
20260502104504 73 209 2.0 4.0 0.00 0.00 0.00 56 1017.6
20260502104303 72 226 4.0 4.0 0.00 0.00 0.00 58 1017.6
20260502104210 72 189 3.0 5.0 0.00 0.00 0.00 57 1017.6
20260502104208 72 226 3.0 5.0 0.00 0.00 0.00 58 17.4
20260502104203 72 180 4.0 4.0 0.00 0.00 0.00 57 1017.6
20260502104105 72 200 3.0 4.0 0.00 0.00 0.00 55 1017.6
20260502103902 72 208 2.0 5.0 0.00 0.00 0.00 54 1017.6
20260502103803 73 208 3.0 5.0 0.00 0.00 0.00 56 1017.7
20260502103604 73 208 4.0 8.0 0.00 0.00 0.00 57 1017.7
20260502103504 73 214 4.0 8.0 0.00 0.00 0.00 57 1017.7
20260502103403 73 216 5.0 8.0 0.00 0.00 0.00 58 1017.8
20260502103302 73 211 5.0 8.0 0.00 0.00 0.00 57 1017.7
20260502103210 72 255 4.0 8.0 0.00 0.00 0.00 60 1017.7
20260502103208 72 211 4.0 8.0 0.00 0.00 0.00 60 17.5
20260502103005 71 306 0.0 8.0 0.00 0.00 0.00 60 1017.7
20260502102803 71 202 6.0 8.0 0.00 0.00 0.00 57 1017.8
20260502102603 71 217 5.0 8.0 0.00 0.00 0.00 56 1017.8
20260502102402 72 213 6.0 8.0 0.00 0.00 0.00 56 1017.8
20260502102305 72 209 3.0 8.0 0.00 0.00 0.00 57 1017.9
20260502102005 71 258 2.0 7.0 0.00 0.00 0.00 59 1017.9
20260502101902 71 229 3.0 6.0 0.00 0.00 0.00 56 1017.9
20260502101803 71 225 0.0 6.0 0.00 0.00 0.00 57 1017.9
20260502101603 71 253 0.0 5.0 0.00 0.00 0.00 56 1017.9
20260502101503 71 292 3.0 7.0 0.00 0.00 0.00 57 1017.9
20260502101302 71 273 3.0 7.0 0.00 0.00 0.00 57 1017.9
20260502101004 71 275 2.0 10.0 0.00 0.00 0.00 58 1017.9
20260502100802 71 289 6.0 10.0 0.00 0.00 0.00 57 1018.0
20260502100402 71 253 3.0 7.0 0.00 0.00 0.00 57 1018.0
20260502100303 71 279 4.0 7.0 0.00 0.00 0.00 56 1018.0
20260502100210 71 260 3.0 7.0 0.00 0.00 0.00 57 1018.0
20260502091504 69 208 1.0 4.0 0.00 0.00 0.00 59 1018.5
20260502091210 70 208 2.0 5.0 0.00 0.00 0.00 59 1018.5
20260502090212 70 239 2.0 4.0 0.00 0.00 0.00 62 1018.5
20260502090210 69 275 2.0 4.0 0.00 0.00 0.00 59 1018.5
20260502071212 58 85 1.0 2.0 0.00 0.00 0.00 74 1018.8
20260502071210 58 85 0.0 1.0 0.00 0.00 0.00 74 1018.9
20260502063212 55 85 0.0 3.0 0.00 0.00 0.00 77 1018.8
20260502062212 54 85 1.0 3.0 0.00 0.00 0.00 74 1018.8
20260502061702 54 85 1.0 1.0 0.00 0.00 0.00 74 1018.8
20260502061504 54 85 0.0 1.0 0.00 0.00 0.00 74 1018.8
20260502061403 54 85 1.0 1.0 0.00 0.00 0.00 74 1018.8
20260502061212 54 85 0.0 2.0 0.00 0.00 0.00 74 1018.8
20260502061210 54 85 1.0 1.0 0.00 0.00 0.00 74 1018.8
20260502061104 54 85 0.0 1.0 0.00 0.00 0.00 74 1018.8
20260502061005 54 85 0.0 1.0 0.00 0.00 0.00 75 1018.8
20260502060803 54 85 0.0 1.0 0.00 0.00 0.00 74 1018.7
20260502060702 53 85 0.0 1.0 0.00 0.00 0.00 74 1018.7
20260502060603 53 85 0.0 1.0 0.00 0.00 0.00 75 1018.7
20260502060504 53 85 0.0 1.0 0.00 0.00 0.00 75 1018.7
20260502060402 53 85 0.0 1.0 0.00 0.00 0.00 74 1018.7
20260502060212 53 85 0.0 2.0 0.00 0.00 0.00 74 1018.7
20260502060210 53 85 1.0 2.0 0.00 0.00 0.00 74 18.4
20260502060202 53 85 1.0 1.0 0.00 0.00 0.00 75 1018.7
20260502055903 53 85 0.0 3.0 0.00 0.00 0.00 75 1018.8
20260502055803 53 85 1.0 3.0 0.00 0.00 0.00 76 1018.8
20260502055702 53 85 2.0 3.0 0.00 0.00 0.00 76 1018.8
20260502055504 53 142 0.0 2.0 0.00 0.00 0.00 76 1018.8
20260502055403 53 142 1.0 2.0 0.00 0.00 0.00 76 1018.8
20260502055212 52 142 1.0 2.0 0.00 0.00 0.00 76 1018.8
20260502055210 52 142 0.0 2.0 0.00 0.00 0.00 77 1018.8
20260502055204 52 142 0.0 2.0 0.00 0.00 0.00 77 1018.8
20260502055103 52 142 0.0 1.0 0.00 0.00 0.00 76 1018.8
20260502054903 52 142 0.0 1.0 0.00 0.00 0.00 76 1018.9
20260502054802 52 142 1.0 2.0 0.00 0.00 0.00 75 1018.9
20260502054504 52 142 1.0 2.0 0.00 0.00 0.00 75 1018.8
20260502054403 52 142 0.0 2.0 0.00 0.00 0.00 75 1018.8
20260502054211 52 142 0.0 1.0 0.00 0.00 0.00 75 1018.9
20260502054203 52 142 0.0 1.0 0.00 0.00 0.00 75 1018.9
20260502054004 52 142 0.0 2.0 0.00 0.00 0.00 74 1018.8
20260502053702 52 142 1.0 2.0 0.00 0.00 0.00 74 1018.7
20260502053505 52 142 0.0 1.0 0.00 0.00 0.00 74 1018.8
20260502053405 52 142 0.0 2.0 0.00 0.00 0.00 74 1018.8
20260502053203 51 142 0.0 2.0 0.00 0.00 0.00 73 1018.8
20260502053103 51 142 1.0 2.0 0.00 0.00 0.00 74 1018.8
20260502052903 51 142 1.0 2.0 0.00 0.00 0.00 74 1018.9
20260502052808 51 142 0.0 2.0 0.00 0.00 0.00 74 1018.9
20260502052703 51 142 0.0 2.0 0.00 0.00 0.00 74 1018.9
20260502052504 51 142 1.0 2.0 0.00 0.00 0.00 74 1018.8
20260502052404 51 142 1.0 2.0 0.00 0.00 0.00 74 1018.8
20260502052305 51 142 0.0 2.0 0.00 0.00 0.00 74 1018.8
20260502052211 51 142 1.0 2.0 0.00 0.00 0.00 74 1018.8
20260502052003 51 83 0.0 2.0 0.00 0.00 0.00 74 1018.7
20260502051803 51 83 1.0 3.0 0.00 0.00 0.00 73 1018.6
20260502051703 51 83 1.0 3.0 0.00 0.00 0.00 74 1018.6
20260502051603 51 84 2.0 3.0 0.00 0.00 0.00 74 1018.6
20260502051402 50 86 1.0 3.0 0.00 0.00 0.00 75 1018.5
20260502051302 50 86 2.0 3.0 0.00 0.00 0.00 76 1018.5
20260502051202 50 103 2.0 3.0 0.00 0.00 0.00 76 1018.5
20260502051006 49 103 2.0 3.0 0.00 0.00 0.00 76 1018.5
20260502050903 49 103 1.0 3.0 0.00 0.00 0.00 76 1018.6
20260502050803 49 105 1.0 2.0 0.00 0.00 0.00 76 1018.6
20260502050603 48 105 1.0 2.0 0.00 0.00 0.00 76 1018.6
20260502050504 48 145 1.0 2.0 0.00 0.00 0.00 78 1018.6
20260502050211 48 145 1.0 2.0 0.00 0.00 0.00 79 1018.6
20260502050203 48 147 1.0 2.0 0.00 0.00 0.00 78 1018.7
20260502050005 47 148 0.0 2.0 0.00 0.00 0.00 78 1018.7
20260502045903 47 135 1.0 3.0 0.00 0.00 0.00 78 1018.7
20260502045602 47 144 2.0 3.0 0.00 0.00 0.00 78 1018.7
20260502045504 47 144 2.0 3.0 0.00 0.00 0.00 78 1018.7
20260502045305 47 144 0.0 3.0 0.00 0.00 0.00 78 1018.7
20260502045212 47 144 2.0 3.0 0.00 0.00 0.00 78 1018.8
20260502045210 47 144 1.0 3.0 0.00 0.00 0.00 75 18.5
20260502045103 47 144 1.0 2.0 0.00 0.00 0.00 77 1018.7
20260502044903 47 144 0.0 3.0 0.00 0.00 0.00 78 1018.7
20260502044803 47 144 1.0 3.0 0.00 0.00 0.00 78 1018.7
20260502044604 47 144 1.0 3.0 0.00 0.00 0.00 78 1018.7
20260502044505 47 147 1.0 3.0 0.00 0.00 0.00 77 1018.6
20260502044302 47 140 2.0 3.0 0.00 0.00 0.00 76 1018.7
20260502044211 47 140 2.0 3.0 0.00 0.00 0.00 76 1018.7
20260502044202 48 138 1.0 2.0 0.00 0.00 0.00 76 1018.7
20260502044003 47 138 2.0 2.0 0.00 0.00 0.00 76 1018.7
20260502043903 47 138 1.0 2.0 0.00 0.00 0.00 76 1018.7
20260502043802 47 134 0.0 2.0 0.00 0.00 0.00 76 1018.8
20260502043703 47 134 1.0 2.0 0.00 0.00 0.00 76 1018.7
20260502043603 47 134 0.0 2.0 0.00 0.00 0.00 76 1018.7
20260502043504 47 135 1.0 2.0 0.00 0.00 0.00 76 1018.7
20260502043211 48 135 0.0 2.0 0.00 0.00 0.00 75 1018.7
20260502043005 48 135 1.0 2.0 0.00 0.00 0.00 75 1018.8
20260502042803 48 135 1.0 2.0 0.00 0.00 0.00 76 1018.8
20260502042603 47 135 1.0 2.0 0.00 0.00 0.00 76 1018.9
20260502042505 47 135 0.0 2.0 0.00 0.00 0.00 76 1018.8
20260502042403 47 135 1.0 3.0 0.00 0.00 0.00 76 1018.8
20260502042211 47 135 1.0 3.0 0.00 0.00 0.00 76 1018.8
20260502042203 47 135 1.0 3.0 0.00 0.00 0.00 76 1018.8
20260502042103 47 134 1.0 3.0 0.00 0.00 0.00 76 1018.9
20260502041703 47 108 0.0 1.0 0.00 0.00 0.00 77 1018.7
20260502041504 47 108 0.0 1.0 0.00 0.00 0.00 77 1018.6
20260502041403 47 108 1.0 2.0 0.00 0.00 0.00 77 1018.7
20260502041211 47 108 1.0 2.0 0.00 0.00 0.00 77 1018.6
20260502041102 47 108 1.0 2.0 0.00 0.00 0.00 77 1018.6
20260502041004 46 108 1.0 2.0 0.00 0.00 0.00 77 1018.6
20260502040902 46 108 0.0 1.0 0.00 0.00 0.00 78 1018.7
20260502040703 46 108 0.0 1.0 0.00 0.00 0.00 78 1018.7
20260502040603 46 108 1.0 2.0 0.00 0.00 0.00 78 1018.7
20260502040504 46 108 0.0 2.0 0.00 0.00 0.00 78 1018.7
20260502040303 46 108 1.0 2.0 0.00 0.00 0.00 78 1018.7
20260502040211 46 108 1.0 2.0 0.00 0.00 0.00 78 1018.7
20260502040202 46 108 2.0 2.0 0.00 0.00 0.00 78 1018.7
20260502040006 46 151 0.0 1.0 0.00 0.00 0.00 78 1018.7
20260502035803 46 151 0.0 2.0 0.00 0.00 0.00 78 1018.7
20260502035602 46 151 1.0 2.0 0.00 0.00 0.00 78 1018.7
20260502035503 46 151 0.0 2.0 0.00 0.00 0.00 78 1018.7
20260502035402 46 151 0.0 1.0 0.00 0.00 0.00 78 1018.8
20260502035211 46 151 0.0 1.0 0.00 0.00 0.00 78 1018.8
20260502034803 46 151 0.0 2.0 0.00 0.00 0.00 78 1018.8
20260502034703 46 147 1.0 1.0 0.00 0.00 0.00 78 1018.8
20260502034603 46 147 0.0 1.0 0.00 0.00 0.00 78 1018.8
20260502034505 46 147 0.0 1.0 0.00 0.00 0.00 79 1018.8
20260502034402 46 147 0.0 1.0 0.00 0.00 0.00 79 1018.9
20260502034303 45 147 0.0 1.0 0.00 0.00 0.00 79 1018.9
20260502034211 45 147 0.0 1.0 0.00 0.00 0.00 79 1018.9
20260502033604 45 147 0.0 1.0 0.00 0.00 0.00 80 1018.8
20260502033403 45 147 0.0 3.0 0.00 0.00 0.00 80 1018.8
20260502033211 45 147 0.0 4.0 0.00 0.00 0.00 80 1018.9
20260502033202 45 147 1.0 4.0 0.00 0.00 0.00 80 1018.9
20260502033004 45 150 1.0 4.0 0.00 0.00 0.00 80 1018.9
20260502032803 45 151 1.0 4.0 0.00 0.00 0.00 79 1018.9
20260502032602 45 144 1.0 2.0 0.00 0.00 0.00 80 1018.9
20260502032211 45 145 0.0 3.0 0.00 0.00 0.00 80 1019.0
20260502032103 45 145 0.0 3.0 0.00 0.00 0.00 80 1019.0
20260502032005 45 145 1.0 3.0 0.00 0.00 0.00 79 1018.9
20260502031903 45 145 2.0 3.0 0.00 0.00 0.00 79 1018.9
20260502031803 45 145 1.0 3.0 0.00 0.00 0.00 79 1018.9
20260502031602 45 101 1.0 3.0 0.00 0.00 0.00 79 1018.9
20260502031504 45 101 2.0 3.0 0.00 0.00 0.00 79 1018.9
20260502031403 45 101 1.0 3.0 0.00 0.00 0.00 79 1018.9
20260502031302 45 101 0.0 2.0 0.00 0.00 0.00 79 1018.9
20260502031211 45 101 0.0 1.0 0.00 0.00 0.00 79 1018.9
20260502031203 45 101 0.0 1.0 0.00 0.00 0.00 79 1018.9
20260502031005 45 101 0.0 2.0 0.00 0.00 0.00 79 1019.0
20260502030802 45 101 2.0 2.0 0.00 0.00 0.00 80 1018.9
20260502030506 45 101 2.0 2.0 0.00 0.00 0.00 80 1019.0
20260502030402 45 101 1.0 2.0 0.00 0.00 0.00 80 1019.0
20260502030203 45 101 1.0 2.0 0.00 0.00 0.00 79 1019.0
20260502025903 45 101 0.0 2.0 0.00 0.00 0.00 79 1019.0
20260502025603 45 101 1.0 2.0 0.00 0.00 0.00 79 1019.0
20260502025504 45 101 1.0 2.0 0.00 0.00 0.00 78 1019.1
20260502025302 46 113 2.0 2.0 0.00 0.00 0.00 78 1019.1
20260502025210 46 113 1.0 2.0 0.00 0.00 0.00 78 1019.1
20260502025202 46 84 1.0 3.0 0.00 0.00 0.00 77 1019.1
20260502025103 46 84 0.0 3.0 0.00 0.00 0.00 77 1019.2
20260502025004 46 84 1.0 3.0 0.00 0.00 0.00 77 1019.2
20260502024902 46 82 1.0 3.0 0.00 0.00 0.00 77 1019.2
20260502024702 46 82 0.0 2.0 0.00 0.00 0.00 77 1019.2
20260502024302 46 82 1.0 2.0 0.00 0.00 0.00 77 1019.2
20260502024210 46 82 1.0 2.0 0.00 0.00 0.00 75 19.0
20260502024103 46 88 1.0 2.0 0.00 0.00 0.00 77 1019.2
20260502024004 46 88 0.0 3.0 0.00 0.00 0.00 77 1019.2
20260502023903 46 88 1.0 3.0 0.00 0.00 0.00 77 1019.3
20260502023504 46 88 1.0 3.0 0.00 0.00 0.00 76 1019.2
20260502023402 47 88 1.0 3.0 0.00 0.00 0.00 76 1019.2
20260502023211 47 90 1.0 3.0 0.00 0.00 0.00 74 19.0
20260502023203 47 90 1.0 3.0 0.00 0.00 0.00 76 1019.3
20260502023005 47 90 2.0 3.0 0.00 0.00 0.00 75 1019.3
20260502022903 47 90 0.0 3.0 0.00 0.00 0.00 75 1019.3
20260502022403 47 90 1.0 2.0 0.00 0.00 0.00 75 1019.3
20260502022306 47 90 0.0 1.0 0.00 0.00 0.00 75 1019.3
20260502022211 47 90 1.0 1.0 0.00 0.00 0.00 73 19.1
20260502022102 47 90 0.0 1.0 0.00 0.00 0.00 74 1019.3
20260502022004 47 90 1.0 1.0 0.00 0.00 0.00 75 1019.3
20260502021803 47 90 0.0 1.0 0.00 0.00 0.00 75 1019.3
20260502021504 47 90 0.0 1.0 0.00 0.00 0.00 74 1019.3
20260502021403 47 90 1.0 1.0 0.00 0.00 0.00 73 1019.4
20260502021210 47 90 1.0 1.0 0.00 0.00 0.00 73 1019.4
20260502021004 48 89 1.0 1.0 0.00 0.00 0.00 73 1019.4
20260502020803 48 89 1.0 1.0 0.00 0.00 0.00 72 1019.5
20260502020403 49 89 0.0 1.0 0.00 0.00 0.00 72 1019.5
20260502020211 47 89 0.0 1.0 0.00 0.00 0.00 72 19.3
20260502020203 49 89 0.0 0.0 0.00 0.00 0.00 71 1019.5
20260502020005 49 88 0.0 0.0 0.00 0.00 0.00 71 1019.5
20260502015904 49 88 0.0 1.0 0.00 0.00 0.00 72 1019.6
20260502015803 49 88 0.0 3.0 0.00 0.00 0.00 72 1019.6
20260502015603 49 88 1.0 3.0 0.00 0.00 0.00 72 1019.6
20260502015505 49 88 2.0 3.0 0.00 0.00 0.00 72 1019.5
20260502015403 48 88 2.0 3.0 0.00 0.00 0.00 72 1019.6
20260502015211 48 89 1.0 2.0 0.00 0.00 0.00 72 19.4
20260502015202 48 89 1.0 2.0 0.00 0.00 0.00 72 1019.6
20260502015103 48 89 0.0 1.0 0.00 0.00 0.00 72 1019.6
20260502015005 48 89 1.0 1.0 0.00 0.00 0.00 72 1019.6
20260502014803 48 89 0.0 1.0 0.00 0.00 0.00 72 1019.6
20260502014603 48 89 0.0 1.0 0.00 0.00 0.00 73 1019.6
20260502014403 48 89 0.0 0.0 0.00 0.00 0.00 72 1019.6
20260502014303 48 89 0.0 0.0 0.00 0.00 0.00 73 1019.6
20260502014003 48 89 0.0 0.0 0.00 0.00 0.00 72 1019.6
20260502013504 49 89 0.0 1.0 0.00 0.00 0.00 72 1019.6
20260502013403 49 89 0.0 1.0 0.00 0.00 0.00 73 1019.6
20260502013302 48 89 0.0 1.0 0.00 0.00 0.00 73 1019.6
20260502013211 48 89 0.0 1.0 0.00 0.00 0.00 72 19.4
20260502013202 48 89 0.0 2.0 0.00 0.00 0.00 73 1019.6
20260502013005 48 89 0.0 2.0 0.00 0.00 0.00 74 1019.6
20260502012902 48 89 2.0 2.0 0.00 0.00 0.00 74 1019.6
20260502012702 48 89 0.0 2.0 0.00 0.00 0.00 74 1019.6
20260502012503 48 89 1.0 2.0 0.00 0.00 0.00 74 1019.6
20260502012402 48 89 1.0 2.0 0.00 0.00 0.00 74 1019.5
20260502012211 48 89 2.0 2.0 0.00 0.00 0.00 72 19.4
20260502012103 48 89 1.0 2.0 0.00 0.00 0.00 74 1019.6
20260502011903 48 89 1.0 3.0 0.00 0.00 0.00 73 1019.6
20260502011702 49 89 2.0 3.0 0.00 0.00 0.00 73 1019.6
20260502011603 49 89 1.0 3.0 0.00 0.00 0.00 73 1019.6
20260502011505 49 89 2.0 3.0 0.00 0.00 0.00 72 1019.6
20260502011402 49 92 1.0 3.0 0.00 0.00 0.00 72 1019.6
20260502011211 49 103 1.0 2.0 0.00 0.00 0.00 71 19.5
20260502011203 49 103 1.0 2.0 0.00 0.00 0.00 72 1019.6
20260502011103 49 103 2.0 2.0 0.00 0.00 0.00 72 1019.6
20260502011004 49 103 1.0 2.0 0.00 0.00 0.00 72 1019.6
20260502010703 49 103 1.0 2.0 0.00 0.00 0.00 71 1019.6
20260502010505 49 103 2.0 2.0 0.00 0.00 0.00 71 1019.6
20260502010403 49 103 1.0 2.0 0.00 0.00 0.00 71 1019.6
20260502010303 49 103 2.0 2.0 0.00 0.00 0.00 71 1019.6
20260502010210 49 103 1.0 2.0 0.00 0.00 0.00 71 1019.6
20260502010204 49 103 0.0 2.0 0.00 0.00 0.00 71 1019.6
20260502005803 49 103 1.0 2.0 0.00 0.00 0.00 72 1019.6
20260502005703 49 103 1.0 3.0 0.00 0.00 0.00 71 1019.6
20260502005603 49 103 2.0 3.0 0.00 0.00 0.00 71 1019.6
20260502005504 49 103 1.0 3.0 0.00 0.00 0.00 71 1019.7
20260502005404 49 103 2.0 3.0 0.00 0.00 0.00 71 1019.6
20260502005305 50 103 1.0 3.0 0.00 0.00 0.00 70 1019.6
20260502005102 50 108 1.0 3.0 0.00 0.00 0.00 70 1019.6
20260502005005 50 108 1.0 3.0 0.00 0.00 0.00 70 1019.7
20260502004903 50 108 2.0 3.0 0.00 0.00 0.00 70 1019.7
20260502004803 50 108 1.0 3.0 0.00 0.00 0.00 70 1019.7
20260502004702 50 108 1.0 2.0 0.00 0.00 0.00 70 1019.7
20260502004603 50 142 1.0 2.0 0.00 0.00 0.00 70 1019.7
20260502004504 50 143 1.0 2.0 0.00 0.00 0.00 69 1019.7
20260502004402 50 143 1.0 2.0 0.00 0.00 0.00 70 1019.7
20260502004210 50 143 1.0 2.0 0.00 0.00 0.00 68 19.5
20260502004202 50 143 1.0 2.0 0.00 0.00 0.00 69 1019.7
20260502004103 50 143 1.0 2.0 0.00 0.00 0.00 69 1019.8
20260502004004 50 143 0.0 1.0 0.00 0.00 0.00 69 1019.7
20260502003802 51 143 0.0 2.0 0.00 0.00 0.00 67 1019.8
20260502003703 51 143 0.0 2.0 0.00 0.00 0.00 66 1019.9
20260502003603 51 143 1.0 2.0 0.00 0.00 0.00 66 1019.9
20260502003504 51 143 1.0 2.0 0.00 0.00 0.00 66 1019.8
20260502003403 51 143 0.0 1.0 0.00 0.00 0.00 66 1019.8
20260502003302 52 143 0.0 1.0 0.00 0.00 0.00 66 1019.9
20260502003210 52 143 1.0 1.0 0.00 0.00 0.00 66 1019.9
20260502002902 52 143 0.0 1.0 0.00 0.00 0.00 65 1019.9
20260502002803 52 143 1.0 1.0 0.00 0.00 0.00 65 1019.9
20260502002403 52 143 0.0 1.0 0.00 0.00 0.00 65 1019.9
20260502002305 52 143 1.0 1.0 0.00 0.00 0.00 65 1019.9
20260502002210 52 143 0.0 1.0 0.00 0.00 0.00 65 1019.9
20260502002203 52 143 0.0 1.0 0.00 0.00 0.00 65 1019.9
20260502001703 52 143 1.0 2.0 0.00 0.00 0.00 64 1020.0
20260502001602 52 143 1.0 3.0 0.00 0.00 0.00 64 1020.1
20260502001505 52 143 0.0 3.0 0.00 0.00 0.00 64 1020.1
20260502001404 52 143 1.0 3.0 0.00 0.00 0.00 64 1020.1
20260502001302 52 143 2.0 3.0 0.00 0.00 0.00 64 1020.1
20260502001202 53 143 2.0 3.0 0.00 0.00 0.00 63 1020.1
20260502001004 53 147 1.0 3.0 0.00 0.00 0.00 63 1020.1
20260502000903 53 144 1.0 3.0 0.00 0.00 0.00 63 1020.1
20260502000802 53 147 1.0 3.0 0.00 0.00 0.00 63 1020.2
20260502000603 53 147 1.0 1.0 0.00 0.00 0.00 62 1020.2
20260502000403 53 147 0.0 1.0 0.00 0.00 0.00 62 1020.3
20260502000303 53 147 0.0 1.0 0.00 0.00 0.00 63 1020.3
20260502000211 53 147 0.0 1.0 0.00 0.00 0.00 63 1020.3
20260502000204 53 147 0.0 1.0 0.00 0.00 0.00 63 1020.4
20260502000005 52 147 0.0 1.0 0.00 0.00 0.00 63 1020.4
20260501235902 52 147 0.0 2.0 0.00 0.00 0.00 64 1020.4
20260501235803 52 147 0.0 2.0 0.00 0.00 0.00 65 1020.4
20260501235603 51 147 1.0 2.0 0.00 0.00 0.00 66 1020.4
20260501235403 51 146 1.0 2.0 0.00 0.00 0.00 67 1020.4
20260501235305 50 147 1.0 3.0 0.00 0.00 0.00 68 1020.4
20260501235210 51 147 1.0 3.0 0.00 0.00 0.00 67 20.2
20260501235203 50 147 1.0 4.0 0.00 0.00 0.00 68 1020.4
20260501235004 50 150 2.0 4.0 0.00 0.00 0.00 69 1020.4
20260501234802 50 150 1.0 4.0 0.00 0.00 0.00 69 1020.4
20260501234505 50 159 2.0 4.0 0.00 0.00 0.00 69 1020.4
20260501234403 51 159 3.0 4.0 0.00 0.00 0.00 68 1020.5
20260501234211 51 161 3.0 4.0 0.00 0.00 0.00 67 1020.5
20260501234202 51 155 1.0 4.0 0.00 0.00 0.00 66 1020.5
20260501234102 51 157 2.0 4.0 0.00 0.00 0.00 66 1020.5
20260501234002 52 157 2.0 4.0 0.00 0.00 0.00 65 1020.5
20260501233908 52 139 2.0 4.0 0.00 0.00 0.00 65 1020.5
20260501233802 52 162 2.0 4.0 0.00 0.00 0.00 64 1020.5
20260501233503 53 147 1.0 5.0 0.00 0.00 0.00 63 1020.5
20260501233403 53 157 2.0 5.0 0.00 0.00 0.00 63 1020.5
20260501233303 53 160 1.0 5.0 0.00 0.00 0.00 62 1020.5
20260501233211 53 160 1.0 5.0 0.00 0.00 0.00 62 1020.5
20260501233203 53 162 1.0 3.0 0.00 0.00 0.00 62 1020.6
20260501233104 53 164 2.0 3.0 0.00 0.00 0.00 61 1020.5
20260501233005 53 164 1.0 4.0 0.00 0.00 0.00 61 1020.6
20260501232903 53 166 0.0 4.0 0.00 0.00 0.00 61 1020.6
20260501232703 53 146 2.0 5.0 0.00 0.00 0.00 61 1020.6
20260501232604 53 157 1.0 5.0 0.00 0.00 0.00 61 1020.6
20260501232504 53 158 1.0 5.0 0.00 0.00 0.00 61 1020.7
20260501232403 53 159 2.0 5.0 0.00 0.00 0.00 61 1020.7
20260501232305 53 159 0.0 5.0 0.00 0.00 0.00 61 1020.7
20260501232211 53 159 1.0 5.0 0.00 0.00 0.00 61 1020.7
20260501232003 53 162 1.0 4.0 0.00 0.00 0.00 62 1020.7
20260501231903 53 151 1.0 3.0 0.00 0.00 0.00 62 1020.7
20260501231703 53 153 1.0 3.0 0.00 0.00 0.00 63 1020.7
20260501231604 53 159 1.0 3.0 0.00 0.00 0.00 63 1020.7
20260501231504 53 155 1.0 3.0 0.00 0.00 0.00 63 1020.7
20260501231303 53 158 2.0 3.0 0.00 0.00 0.00 63 1020.7
20260501231210 53 158 2.0 3.0 0.00 0.00 0.00 63 1020.7
20260501231203 53 155 1.0 3.0 0.00 0.00 0.00 63 1020.7
20260501231005 53 147 1.0 3.0 0.00 0.00 0.00 63 1020.7
20260501230903 53 134 1.0 3.0 0.00 0.00 0.00 63 1020.7
20260501230603 53 144 1.0 3.0 0.00 0.00 0.00 63 1020.7
20260501230503 53 159 1.0 2.0 0.00 0.00 0.00 63 1020.7
20260501230402 53 161 1.0 4.0 0.00 0.00 0.00 63 1020.7
20260501230303 53 159 1.0 4.0 0.00 0.00 0.00 63 1020.8
20260501230210 54 148 1.0 3.0 0.00 0.00 0.00 62 20.6
20260501230006 54 143 2.0 4.0 0.00 0.00 0.00 62 1020.8
20260501225703 54 132 1.0 4.0 0.00 0.00 0.00 61 1020.8
20260501225504 54 135 2.0 4.0 0.00 0.00 0.00 60 1020.8
20260501225403 55 153 3.0 6.0 0.00 0.00 0.00 60 1020.8
20260501225305 55 168 2.0 6.0 0.00 0.00 0.00 59 1020.8
20260501225213 55 168 3.0 6.0 0.00 0.00 0.00 59 1020.8
20260501225210 55 168 2.0 6.0 0.00 0.00 0.00 60 20.6
20260501225103 55 130 4.0 6.0 0.00 0.00 0.00 59 1020.8
20260501224903 55 193 4.0 6.0 0.00 0.00 0.00 59 1020.8
20260501224703 55 159 5.0 6.0 0.00 0.00 0.00 58 1020.9
20260501224603 55 178 4.0 6.0 0.00 0.00 0.00 58 1020.8
20260501224504 55 183 4.0 7.0 0.00 0.00 0.00 58 1020.8
20260501224307 56 141 4.0 7.0 0.00 0.00 0.00 58 1020.8
20260501224203 55 183 5.0 7.0 0.00 0.00 0.00 58 1020.8
20260501224103 55 182 5.0 7.0 0.00 0.00 0.00 58 1020.8
20260501224003 55 161 5.0 7.0 0.00 0.00 0.00 58 1020.8
20260501223803 55 167 4.0 6.0 0.00 0.00 0.00 59 1020.8
20260501223702 55 186 4.0 6.0 0.00 0.00 0.00 59 1020.8
20260501223603 55 202 3.0 6.0 0.00 0.00 0.00 59 1020.7
20260501223504 55 161 4.0 6.0 0.00 0.00 0.00 59 1020.8
20260501223402 55 172 3.0 6.0 0.00 0.00 0.00 59 1020.8
20260501223302 55 171 3.0 6.0 0.00 0.00 0.00 59 1020.8
20260501223210 55 171 3.0 6.0 0.00 0.00 0.00 60 20.6
20260501223203 55 163 3.0 6.0 0.00 0.00 0.00 60 1020.7
20260501222805 55 143 4.0 7.0 0.00 0.00 0.00 60 1020.8
20260501222703 55 173 3.0 7.0 0.00 0.00 0.00 60 1020.8
20260501222603 55 161 2.0 6.0 0.00 0.00 0.00 60 1020.7
20260501222503 55 150 1.0 4.0 0.00 0.00 0.00 60 1020.8
20260501222403 55 153 0.0 4.0 0.00 0.00 0.00 60 1020.7
20260501222210 55 180 2.0 5.0 0.00 0.00 0.00 60 20.6
20260501222202 55 157 2.0 4.0 0.00 0.00 0.00 61 1020.8
20260501222103 55 115 1.0 4.0 0.00 0.00 0.00 60 1020.8
20260501222004 55 140 1.0 4.0 0.00 0.00 0.00 60 1020.8
20260501221904 55 139 1.0 4.0 0.00 0.00 0.00 60 1020.8
20260501221702 55 200 1.0 4.0 0.00 0.00 0.00 59 1020.8
20260501221603 55 143 2.0 4.0 0.00 0.00 0.00 59 1020.8
20260501221504 56 136 2.0 5.0 0.00 0.00 0.00 59 1020.8
20260501221302 56 188 2.0 6.0 0.00 0.00 0.00 58 1020.8
20260501221211 56 188 2.0 6.0 0.00 0.00 0.00 58 1020.8
20260501221202 56 140 2.0 6.0 0.00 0.00 0.00 58 1020.8
20260501221103 56 157 3.0 6.0 0.00 0.00 0.00 58 1020.8
20260501221004 56 187 3.0 6.0 0.00 0.00 0.00 58 1020.8
20260501220903 56 165 2.0 6.0 0.00 0.00 0.00 58 1020.8
20260501220802 56 134 3.0 5.0 0.00 0.00 0.00 58 1020.8
20260501220702 56 173 3.0 7.0 0.00 0.00 0.00 58 1020.8
20260501220603 56 175 3.0 7.0 0.00 0.00 0.00 58 1020.8
20260501220503 56 190 4.0 7.0 0.00 0.00 0.00 58 1020.8
20260501220402 56 174 4.0 7.0 0.00 0.00 0.00 58 1020.8
20260501220303 56 180 4.0 7.0 0.00 0.00 0.00 59 1020.8
20260501220006 56 150 3.0 6.0 0.00 0.00 0.00 59 1020.7
20260501215902 56 143 3.0 5.0 0.00 0.00 0.00 60 1020.7
20260501215703 56 183 0.0 5.0 0.00 0.00 0.00 60 1020.8
20260501215305 55 150 2.0 4.0 0.00 0.00 0.00 60 1020.7
20260501215213 55 158 2.0 4.0 0.00 0.00 0.00 60 20.6
20260501215210 55 158 2.0 4.0 0.00 0.00 0.00 60 1020.7
20260501215202 55 192 2.0 4.0 0.00 0.00 0.00 60 1020.8
20260501214902 56 173 2.0 3.0 0.00 0.00 0.00 59 1020.8
20260501214702 56 212 0.0 5.0 0.00 0.00 0.00 59 1020.8
20260501214402 56 176 3.0 5.0 0.00 0.00 0.00 58 1020.9
20260501214303 56 167 3.0 5.0 0.00 0.00 0.00 58 1020.9
20260501214213 56 167 3.0 6.0 0.00 0.00 0.00 58 20.7
20260501214210 56 158 3.0 5.0 0.00 0.00 0.00 58 1020.9
20260501214103 56 169 0.0 5.0 0.00 0.00 0.00 58 1020.9
20260501214004 56 157 3.0 5.0 0.00 0.00 0.00 58 1020.9
20260501213702 56 186 2.0 5.0 0.00 0.00 0.00 59 1020.9
20260501213402 56 191 5.0 5.0 0.00 0.00 0.00 58 1020.9
20260501213213 56 104 2.0 5.0 0.00 0.00 0.00 58 20.6
20260501213211 56 168 3.0 5.0 0.00 0.00 0.00 58 1020.9
20260501213103 56 168 1.0 5.0 0.00 0.00 0.00 58 1020.9
20260501213004 56 163 1.0 5.0 0.00 0.00 0.00 58 1020.8
20260501212603 57 183 3.0 5.0 0.00 0.00 0.00 58 1020.9
20260501212404 57 180 2.0 6.0 0.00 0.00 0.00 58 1020.9
20260501212203 57 193 4.0 6.0 0.00 0.00 0.00 58 1020.9
20260501212102 57 183 4.0 6.0 0.00 0.00 0.00 57 1020.9
20260501211902 57 178 4.0 5.0 0.00 0.00 0.00 57 1020.9
20260501211604 57 178 0.0 4.0 0.00 0.00 0.00 57 1020.9
20260501211402 58 157 3.0 4.0 0.00 0.00 0.00 57 1020.9
20260501211214 58 167 3.0 4.0 0.00 0.00 0.00 56 20.7
20260501211211 58 167 2.0 4.0 0.00 0.00 0.00 57 1020.9
20260501211202 58 146 3.0 4.0 0.00 0.00 0.00 57 1020.9
20260501211103 58 180 3.0 4.0 0.00 0.00 0.00 56 1020.9
20260501210903 58 170 0.0 5.0 0.00 0.00 0.00 56 1021.0
20260501210504 58 177 4.0 6.0 0.00 0.00 0.00 56 1020.9
20260501210403 58 157 4.0 6.0 0.00 0.00 0.00 55 1020.9
20260501210303 58 170 2.0 6.0 0.00 0.00 0.00 55 1021.0
20260501210214 58 188 4.0 6.0 0.00 0.00 0.00 55 20.7
20260501210211 58 170 4.0 6.0 0.00 0.00 0.00 55 1021.0
20260501210209 58 188 4.0 6.0 0.00 0.00 0.00 55 1020.9
20260501210005 58 176 6.0 6.0 0.00 0.00 0.00 55 1020.9
20260501205802 59 171 4.0 6.0 0.00 0.00 0.00 54 1020.9
20260501205602 59 126 3.0 5.0 0.00 0.00 0.00 54 1020.9
20260501205403 59 206 0.0 5.0 0.00 0.00 0.00 54 1020.9
20260501205305 59 180 4.0 6.0 0.00 0.00 0.00 54 1021.0
20260501205004 59 171 0.0 6.0 0.00 0.00 0.00 53 1021.0
20260501204903 59 202 4.0 6.0 0.00 0.00 0.00 53 1021.0
20260501204603 60 202 5.0 9.0 0.00 0.00 0.00 52 1021.0
20260501204402 60 200 6.0 9.0 0.00 0.00 0.00 52 1021.0
20260501204212 60 191 5.0 9.0 0.00 0.00 0.00 52 20.7
20260501204210 60 192 4.0 9.0 0.00 0.00 0.00 52 1021.0
20260501204203 60 196 6.0 9.0 0.00 0.00 0.00 52 1021.0
20260501204005 60 164 0.0 9.0 0.00 0.00 0.00 52 1021.0
20260501203802 60 155 6.0 9.0 0.00 0.00 0.00 52 1021.0
20260501203602 60 185 6.0 9.0 0.00 0.00 0.00 52 1021.0
20260501203504 60 202 7.0 8.0 0.00 0.00 0.00 52 1021.0
20260501203303 60 187 7.0 9.0 0.00 0.00 0.00 51 1021.0
20260501203213 60 187 6.0 10.0 0.00 0.00 0.00 52 20.8
20260501203211 60 187 6.0 9.0 0.00 0.00 0.00 51 1021.0
20260501203103 60 199 6.0 9.0 0.00 0.00 0.00 51 1021.1
20260501202902 60 186 8.0 9.0 0.00 0.00 0.00 51 1021.1
20260501202703 60 140 0.0 9.0 0.00 0.00 0.00 51 1021.1
20260501202403 60 177 6.0 9.0 0.00 0.00 0.00 50 1021.0
20260501202306 60 185 6.0 9.0 0.00 0.00 0.00 50 1021.0
20260501202212 61 188 6.0 9.0 0.00 0.00 0.00 50 20.8
20260501202210 61 175 6.0 9.0 0.00 0.00 0.00 50 1021.0
20260501202104 61 175 6.0 9.0 0.00 0.00 0.00 50 1021.0
20260501201902 61 182 0.0 9.0 0.00 0.00 0.00 50 1021.0
20260501201802 61 180 6.0 9.0 0.00 0.00 0.00 49 1020.9
20260501201602 61 185 6.0 7.0 0.00 0.00 0.00 50 1021.0
20260501201506 61 190 4.0 7.0 0.00 0.00 0.00 49 1021.0
20260501201302 61 180 4.0 7.0 0.00 0.00 0.00 49 1020.9
20260501201212 61 180 5.0 7.0 0.00 0.00 0.00 49 20.7
20260501201210 61 184 6.0 7.0 0.00 0.00 0.00 49 1020.9
20260501201202 61 148 4.0 7.0 0.00 0.00 0.00 49 1020.9
20260501201005 61 198 0.0 8.0 0.00 0.00 0.00 49 1020.9
20260501200703 61 180 4.0 8.0 0.00 0.00 0.00 49 1020.9
20260501200604 61 198 4.0 8.0 0.00 0.00 0.00 49 1020.9
20260501200403 61 195 2.0 6.0 0.00 0.00 0.00 49 1020.9
20260501200212 62 157 4.0 6.0 0.00 0.00 0.00 48 20.7
20260501200210 61 157 4.0 6.0 0.00 0.00 0.00 48 1020.9
20260501200202 61 191 4.0 6.0 0.00 0.00 0.00 48 1020.9
20260501195504 62 180 3.0 6.0 0.00 0.00 0.00 47 1020.9
20260501195403 62 186 3.0 5.0 0.00 0.00 0.00 47 1020.9
20260501195212 62 186 4.0 6.0 0.00 0.00 0.00 47 20.7
20260501195210 62 179 3.0 5.0 0.00 0.00 0.00 47 1020.9
20260501195203 62 179 4.0 5.0 0.00 0.00 0.00 47 1020.9
20260501195005 62 194 0.0 5.0 0.00 0.00 0.00 47 1020.9
20260501194902 62 180 4.0 5.0 0.00 0.00 0.00 47 1020.8
20260501194803 62 217 3.0 6.0 0.00 0.00 0.00 47 1020.8
20260501194504 62 186 4.0 6.0 0.00 0.00 0.00 47 1020.9
20260501194302 63 170 1.0 6.0 0.00 0.00 0.00 46 1020.8
20260501194214 63 160 3.0 5.0 0.00 0.00 0.00 46 1020.8
20260501194210 63 170 3.0 6.0 0.00 0.00 0.00 46 1020.8
20260501194202 63 142 1.0 6.0 0.00 0.00 0.00 46 1020.8
20260501194004 63 148 1.0 5.0 0.00 0.00 0.00 46 1020.7
20260501193703 63 118 3.0 5.0 0.00 0.00 0.00 46 1020.8
20260501193503 63 188 4.0 4.0 0.00 0.00 0.00 46 1020.7
20260501193302 63 154 2.0 5.0 0.00 0.00 0.00 46 1020.8
20260501193211 63 154 2.0 4.0 0.00 0.00 0.00 46 1020.8
20260501193004 63 150 0.0 5.0 0.00 0.00 0.00 45 1020.8
20260501192802 64 157 2.0 6.0 0.00 0.00 0.00 45 1020.7
20260501192504 64 165 0.0 7.0 0.00 0.00 0.00 45 1020.8
20260501192402 64 157 3.0 7.0 0.00 0.00 0.00 45 1020.7
20260501192210 64 129 3.0 7.0 0.00 0.00 0.00 45 20.5
20260501192102 64 144 2.0 6.0 0.00 0.00 0.00 45 1020.7
20260501192004 64 126 2.0 6.0 0.00 0.00 0.00 45 1020.7
20260501191902 64 126 1.0 6.0 0.00 0.00 0.00 45 1020.7
20260501191703 64 102 2.0 5.0 0.00 0.00 0.00 45 1020.7
20260501191603 64 190 2.0 5.0 0.00 0.00 0.00 44 1020.7
20260501191504 64 112 1.0 5.0 0.00 0.00 0.00 45 1020.7
20260501191303 64 132 1.0 5.0 0.00 0.00 0.00 45 1020.7
20260501191210 64 132 1.0 5.0 0.00 0.00 0.00 45 1020.7
20260501191202 64 142 1.0 5.0 0.00 0.00 0.00 44 1020.7
20260501191102 64 152 1.0 5.0 0.00 0.00 0.00 44 1020.7
20260501190903 64 146 2.0 6.0 0.00 0.00 0.00 44 1020.6
20260501190604 64 121 3.0 6.0 0.00 0.00 0.00 44 1020.6
20260501190503 64 109 3.0 6.0 0.00 0.00 0.00 44 1020.7
20260501190402 64 147 1.0 6.0 0.00 0.00 0.00 45 1020.6
20260501190211 65 153 1.0 6.0 0.00 0.00 0.00 44 1020.6
20260501190203 65 153 1.0 6.0 0.00 0.00 0.00 44 1020.6
20260501190005 65 116 1.0 6.0 0.00 0.00 0.00 43 1020.6
20260501185902 65 98 4.0 7.0 0.00 0.00 0.00 44 1020.6
20260501185602 64 138 2.0 7.0 0.00 0.00 0.00 44 1020.6
20260501185403 64 146 3.0 7.0 0.00 0.00 0.00 44 1020.6
20260501185305 65 126 1.0 5.0 0.00 0.00 0.00 45 1020.6
20260501185211 64 150 2.0 5.0 0.00 0.00 0.00 44 20.4
20260501185004 65 157 3.0 8.0 0.00 0.00 0.00 44 1020.6
20260501184904 65 161 3.0 8.0 0.00 0.00 0.00 44 1020.6
20260501184702 65 123 0.0 8.0 0.00 0.00 0.00 44 1020.6
20260501184603 66 138 2.0 6.0 0.00 0.00 0.00 43 1020.6
20260501184403 66 138 0.0 6.0 0.00 0.00 0.00 43 1020.6
20260501184302 66 135 1.0 6.0 0.00 0.00 0.00 42 1020.6
20260501184210 66 146 3.0 6.0 0.00 0.00 0.00 43 1020.6
20260501184203 66 141 3.0 6.0 0.00 0.00 0.00 42 1020.6
20260501184004 66 155 3.0 6.0 0.00 0.00 0.00 42 1020.6
20260501183903 66 134 2.0 6.0 0.00 0.00 0.00 42 1020.6
20260501183802 66 107 2.0 5.0 0.00 0.00 0.00 41 1020.6
20260501183604 66 150 0.0 5.0 0.00 0.00 0.00 41 1020.6
20260501183210 67 153 3.0 5.0 0.00 0.00 0.00 41 1020.6
20260501183103 67 156 2.0 5.0 0.00 0.00 0.00 41 1020.6
20260501182803 67 126 2.0 6.0 0.00 0.00 0.00 41 1020.6
20260501182604 67 132 2.0 6.0 0.00 0.00 0.00 40 1020.6
20260501182403 67 140 2.0 6.0 0.00 0.00 0.00 40 1020.5
20260501182211 68 134 3.0 5.0 0.00 0.00 0.00 39 1020.5
20260501182203 68 134 2.0 5.0 0.00 0.00 0.00 39 1020.5
20260501182005 68 150 2.0 6.0 0.00 0.00 0.00 39 1020.5
20260501181903 68 135 5.0 6.0 0.00 0.00 0.00 39 1020.5
20260501181702 68 162 2.0 8.0 0.00 0.00 0.00 39 1020.5